Volcan De Teneguia — ECLA — position and weather

sailwx.info

Track history (hours):
 
Tides and Currents Weather Stations Pressure Air Temp Water Temp Dewpoint Dewpoint Depression Visibility Wind Speed Wind Dir Waves Ship Positions

Volcan De Teneguia

Last reported at 2014-Aug-28 20:25 UTC. Time now 2014-Aug-30 10:32 UTC.
Position N 31°05' W 012°25'.

Length 145 m; draft 6.2 m.

Type: Cargo ship. MMSI: 225317000.

Date/timePositionNaut miles runAvg speedWind from/ knotsBaromVisibWave heightAir tempDewpointWater temp
2014-Aug-28 20:25N 31°05' W 012°25'1314.7
2014-Aug-28 19:33N 31°15' W 012°16'1514.8
2014-Aug-28 18:33N 31°26' W 012°04'1514.8
2014-Aug-28 17:33N 31°37' W 011°53'1514.8
2014-Aug-28 16:33N 31°48' W 011°42'10614.6
2014-Aug-28 09:18N 33°09' W 010°20'1114.4
2014-Aug-28 08:32N 33°17' W 010°11'1514.7
2014-Aug-28 07:31N 33°28' W 009°59'1414.6
2014-Aug-28 06:33N 33°39' W 009°48'4714.5
2014-Aug-28 03:19N 34°15' W 009°12'1114.7
2014-Aug-28 02:33N 34°23' W 009°02'1514.9
2014-Aug-28 01:33N 34°34' W 008°50'1614.8
2014-Aug-28 00:30N 34°46' W 008°38'4514.6
2014-Aug-27 21:24N 35°20' W 008°02'1214.4
2014-Aug-27 20:33N 35°29' W 007°52'1514.7
2014-Aug-27 19:33N 35°40' W 007°40'1514.6
2014-Aug-27 18:33N 35°51' W 007°28'1514.0
2014-Aug-27 17:29N 36°03' W 007°16'  
2014-Aug-20 23:33N 33°05' W 010°23'3115.1
2014-Aug-20 21:31N 33°28' W 009°59'1714.9
2014-Aug-20 20:24N 33°41' W 009°46'12115.5
2014-Aug-20 12:33N 35°13' W 008°10'1515.2
2014-Aug-20 11:33N 35°24' W 007°58'3014.9
2014-Aug-20 09:33N 35°47' W 007°34'1514.7
2014-Aug-20 08:33N 35°58' W 007°23'  
Track history (hours):
 
Tides and Currents Weather Stations Pressure Air Temp Water Temp Dewpoint Dewpoint Depression Visibility Wind Speed Wind Dir Waves Ship Positions

Volcan De Teneguia

Last reported at 2014-Aug-28 20:25 UTC. Time now 2014-Aug-30 10:32 UTC.
Position N 31°05' W 012°25'.

Length 145 m; draft 6.2 m.

Type: Cargo ship. MMSI: 225317000.

Date/timePositionNaut miles runAvg speedWind from/ knotsBaromVisibWave heightAir tempDewpointWater temp
2014-Aug-28 20:25N 31°05' W 012°25'1314.7
2014-Aug-28 19:33N 31°15' W 012°16'1514.8
2014-Aug-28 18:33N 31°26' W 012°04'1514.8
2014-Aug-28 17:33N 31°37' W 011°53'1514.8
2014-Aug-28 16:33N 31°48' W 011°42'10614.6
2014-Aug-28 09:18N 33°09' W 010°20'1114.4
2014-Aug-28 08:32N 33°17' W 010°11'1514.7
2014-Aug-28 07:31N 33°28' W 009°59'1414.6
2014-Aug-28 06:33N 33°39' W 009°48'4714.5
2014-Aug-28 03:19N 34°15' W 009°12'1114.7
2014-Aug-28 02:33N 34°23' W 009°02'1514.9
2014-Aug-28 01:33N 34°34' W 008°50'1614.8
2014-Aug-28 00:30N 34°46' W 008°38'4514.6
2014-Aug-27 21:24N 35°20' W 008°02'1214.4
2014-Aug-27 20:33N 35°29' W 007°52'1514.7
2014-Aug-27 19:33N 35°40' W 007°40'1514.6
2014-Aug-27 18:33N 35°51' W 007°28'1514.0
2014-Aug-27 17:29N 36°03' W 007°16'  
2014-Aug-20 23:33N 33°05' W 010°23'3115.1
2014-Aug-20 21:31N 33°28' W 009°59'1714.9
2014-Aug-20 20:24N 33°41' W 009°46'12115.5
2014-Aug-20 12:33N 35°13' W 008°10'1515.2
2014-Aug-20 11:33N 35°24' W 007°58'3014.9
2014-Aug-20 09:33N 35°47' W 007°34'1514.7
2014-Aug-20 08:33N 35°58' W 007°23'  

Dump ship's entire track history